2 luglio 2022

Tempo Codice Tempo metereologico Temp. Vista Base nuvolosa Vento METAR/SPECI
9:25 pm
V
68 °F 6¼ mi+ 18.000 ft 190° 190° 2 kt METAR EHLW 021925Z AUTO 19002KT 9999 OVC180 20/12 Q1018 BLU
8:55 pm
V
68 °F 6¼ mi+ 19.000 ft Var Var 1 kt METAR EHLW 021855Z AUTO VRB01KT 9999 SCT130 OVC190 20/11 Q1018 BLU
8:25 pm
V
68 °F 6¼ mi+ 11.000 ft Var Var 2 kt METAR EHLW 021825Z AUTO VRB02KT 9999 BKN110 OVC190 20/12 Q1018 BLU
7:55 pm
V
70 °F 6¼ mi+ 20.000 ft Var Var 2 kt METAR EHLW 021755Z AUTO VRB02KT 9999 SCT130 OVC200 21/11 Q1018 BLU
7:25 pm
V
70 °F 6¼ mi+ 23.000 ft Var Var 2 kt METAR EHLW 021725Z AUTO VRB02KT 9999 BKN230 21/10 Q1018 BLU
6:55 pm
V
72 °F 6¼ mi+ - Var Var 2 kt METAR EHLW 021655Z AUTO VRB02KT 9999 FEW071 SCT076 22/11 Q1018 BLU
6:25 pm
V
70 °F 6¼ mi+ 6.200 ft 260° 260° 4 kt METAR EHLW 021625Z AUTO 26004KT 210V290 9999 BKN062 BKN067 OVC074 21/11 Q1019 BLU
5:55 pm
V
70 °F 6¼ mi+ 7.400 ft 230° 230° 5 kt METAR EHLW 021555Z AUTO 23005KT 200V300 9999 BKN074 BKN220 21/11 Q1019 BLU
5:25 pm
V
70 °F 6¼ mi+ 7.200 ft 250° 250° 7 kt METAR EHLW 021525Z AUTO 25007KT 200V280 9999 BKN072 BKN220 21/11 Q1019 BLU
4:55 pm
V
70 °F 6¼ mi+ 7.000 ft 240° 240° 6 kt METAR EHLW 021455Z AUTO 24006KT 200V280 9999 BKN070 OVC076 21/11 Q1020 BLU
4:25 pm
V
70 °F 6¼ mi+ 7.000 ft 240° 240° 8 kt METAR EHLW 021425Z AUTO 24008KT 200V270 9999 FEW051 OVC070 21/11 Q1020 BLU
3:55 pm
V
68 °F 6¼ mi+ 6.000 ft 220° 220° 9 kt METAR EHLW 021355Z AUTO 22009KT 190V280 9999 BKN060 OVC067 20/11 Q1020 BLU
3:25 pm
V
68 °F 6¼ mi+ 5.800 ft 220° 220° 11 kt METAR EHLW 021325Z AUTO 22011KT 180V250 9999 OVC058 20/11 Q1020 BLU
2:55 pm
V
70 °F 6¼ mi+ 6.700 ft 220° 220° 10 kt METAR EHLW 021255Z AUTO 22010KT 170V260 9999 OVC067 21/10 Q1020 BLU
2:25 pm
V
68 °F 6¼ mi+ 6.200 ft 210° 210° 11 kt METAR EHLW 021225Z AUTO 21011KT 170V250 9999 OVC062 20/11 Q1020 BLU
1:55 pm
V
68 °F 6¼ mi+ 5.900 ft 220° 220° 11 kt METAR EHLW 021155Z AUTO 22011KT 180V250 9999 SCT053 BKN059 OVC066 20/11 Q1020 BLU
1:25 pm
V
68 °F 6¼ mi+ - 220° 220° 12 kt METAR EHLW 021125Z AUTO 22012KT 170V240 9999 SCT036 SCT063 20/11 Q1020 BLU
12:55 pm
V
66 °F 6¼ mi+ 5.100 ft 210° 210° 11 kt METAR EHLW 021055Z AUTO 21011KT 170V250 9999 FEW036 SCT040 BKN051 19/11 Q1021 BLU
12:25 pm
V
66 °F 6¼ mi+ 24.000 ft 230° 230° 13 kt METAR EHLW 021025Z AUTO 23013KT 170V260 9999 FEW041 SCT055 OVC240 19/12 Q1021 BLU
11:55 am
V
66 °F 6¼ mi+ 4.600 ft 220° 220° 12 kt METAR EHLW 020955Z AUTO 22012KT 170V240 9999 FEW035 SCT040 BKN046 19/11 Q1021 BLU
11:25 am
V
66 °F 6¼ mi+ 3.400 ft 220° 220° 12 kt METAR EHLW 020925Z AUTO 22012KT 190V260 9999 SCT029 BKN034 BKN042 19/11 Q1021 BLU
10:55 am
V
64 °F 6¼ mi+ 3.200 ft 220° 220° 14 kt METAR EHLW 020855Z AUTO 22014KT 180V260 9999 FEW025 SCT028 BKN032 18/12 Q1021 BLU
10:32 am
V
64 °F 6¼ mi+ - 220° 220° 13 kt METAR EHLW 020832Z AUTO 22013KT 180V250 9999 FEW023 SCT027 18/13 Q1020 BLU
10:25 am
V
64 °F 6¼ mi+ 25.000 ft 220° 220° 13 kt METAR EHLW 020825Z AUTO 22013KT 170V250 9999 SCT022 BKN250 18/13 Q1020 WHT
9:55 am
V
64 °F 6¼ mi+ - 210° 210° 12 kt METAR EHLW 020755Z AUTO 21012KT 170V240 9999 SCT260 18/13 Q1020 BLU
9:31 am
V
63 °F 6¼ mi+ - 220° 220° 13 kt METAR EHLW 020731Z AUTO 22013KT 170V250 9999 FEW018 SCT270 17/13 Q1020 BLU
9:25 am
M
63 °F 6¼ mi+ 1.800 ft 220° 220° 12 kt METAR EHLW 020725Z AUTO 22012KT 180V250 9999 BKN018 BKN026 17/13 Q1020 WHT
9:14 am
V
64 °F 6¼ mi+ - 220° 220° 12 kt METAR EHLW 020714Z AUTO 22012KT 9999 SCT018 18/13 Q1020 WHT
8:55 am
M
63 °F 6¼ mi+ 1.700 ft 220° 220° 12 kt METAR EHLW 020655Z AUTO 22012KT 170V250 9999 BKN017 17/13 Q1020 WHT
8:42 am
V
63 °F 6¼ mi+ - 220° 220° 13 kt METAR EHLW 020642Z AUTO 22013KT 190V250 9999 SCT017 17/13 Q1020 WHT
8:25 am
V
63 °F 6¼ mi+ - 220° 220° 11 kt METAR EHLW 020625Z AUTO 22011KT 190V250 9999 FEW017 SCT052 17/13 Q1020 BLU
7:55 am
V
61 °F 6¼ mi+ - 210° 210° 6 kt METAR EHLW 020555Z AUTO 21006KT 150V230 9999 NCD 16/13 Q1020 BLU
7:25 am
V
59 °F 6¼ mi+ - 180° 180° 7 kt METAR EHLW 020525Z AUTO 18007KT 150V210 9999 NCD 15/12 Q1020 BLU
6:55 am
V
59 °F 6¼ mi+ - 190° 190° 6 kt METAR EHLW 020455Z AUTO 19006KT 150V220 9999 NCD 15/12 Q1020 BLU
6:25 am
V
57 °F 6¼ mi+ - 180° 180° 7 kt METAR EHLW 020425Z AUTO 18007KT 9999 NCD 14/11 Q1020 BLU
5:55 am
V
55 °F 6¼ mi+ - 180° 180° 6 kt METAR EHLW 020355Z AUTO 18006KT 150V210 9999 NCD 13/11 Q1019 BLU
5:25 am
V
55 °F 6¼ mi+ - 170° 170° 6 kt METAR EHLW 020325Z AUTO 17006KT 140V210 9999 NCD 13/11 Q1019 BLU
4:55 am
V
55 °F 6¼ mi+ - 170° 170° 5 kt METAR EHLW 020255Z AUTO 17005KT 9999 NCD 13/10 Q1019 BLU
4:25 am
V
55 °F 6¼ mi+ - 190° 190° 6 kt METAR EHLW 020225Z AUTO 19006KT 160V220 9999 NCD 13/10 Q1019 BLU
3:55 am
V
55 °F 6¼ mi+ - 190° 190° 6 kt METAR EHLW 020155Z AUTO 19006KT 140V230 9999 NCD 13/10 Q1019 BLU
3:25 am
V
55 °F 6¼ mi+ - 190° 190° 6 kt METAR EHLW 020125Z AUTO 19006KT 160V220 9999 NCD 13/10 Q1020 BLU
2:55 am
V
55 °F 6¼ mi+ - 190° 190° 6 kt METAR EHLW 020055Z AUTO 19006KT 160V220 9999 NCD 13/10 Q1020 BLU
2:25 am
V
55 °F 6¼ mi+ - 190° 190° 5 kt METAR EHLW 020025Z AUTO 19005KT 150V220 9999 NCD 13/11 Q1020 BLU RMK CB INFO NOT AVBL
1:55 am
V
55 °F 6¼ mi+ - 190° 190° 5 kt METAR EHLW 012355Z AUTO 19005KT 160V220 9999 NCD 13/11 Q1020 BLU
1:25 am
V
55 °F 6¼ mi+ - 190° 190° 5 kt METAR EHLW 012325Z AUTO 19005KT 9999 NCD 13/11 Q1020 BLU
12:55 am
V
57 °F 6¼ mi+ - 190° 190° 6 kt METAR EHLW 012255Z AUTO 19006KT 160V220 9999 NCD 14/11 Q1020 BLU
12:25 am
V
57 °F 6¼ mi+ - 180° 180° 5 kt METAR EHLW 012225Z AUTO 18005KT 150V220 9999 NCD 14/11 Q1020 BLU

1 luglio 2022

Tempo Codice Tempo metereologico Temp. Vista Base nuvolosa Vento METAR/SPECI
11:55 pm
V
57 °F 6¼ mi+ - 180° 180° 5 kt METAR EHLW 012155Z AUTO 18005KT 160V220 9999 NCD 14/11 Q1020 BLU
11:25 pm
V
57 °F 6¼ mi+ - 190° 190° 5 kt METAR EHLW 012125Z AUTO 19005KT 160V220 9999 NCD 14/11 Q1019 BLU
10:55 pm
V
57 °F 6¼ mi+ - 220° 220° 4 kt METAR EHLW 012055Z AUTO 22004KT 9999 NCD 14/11 Q1019 BLU
10:25 pm
V
59 °F 6¼ mi+ - 210° 210° 4 kt METAR EHLW 012025Z AUTO 21004KT 9999 NCD 15/11 Q1019 BLU
9:55 pm
V
59 °F 6¼ mi+ - 220° 220° 5 kt METAR EHLW 011955Z AUTO 22005KT 9999 NCD 15/11 Q1018 BLU
9:25 pm
V
59 °F 6¼ mi+ - 230° 230° 7 kt METAR EHLW 011925Z AUTO 23007KT 200V260 9999 NCD 15/11 Q1018 BLU
8:55 pm
V
63 °F 6¼ mi+ - 240° 240° 10 kt METAR EHLW 011855Z AUTO 24010KT 200V270 9999 NCD 17/11 Q1018 BLU
8:25 pm
V
64 °F 6¼ mi+ - 240° 240° 12 kt METAR EHLW 011825Z AUTO 24012KT 200V270 9999 NCD 18/11 Q1018 BLU
7:55 pm
V
64 °F 6¼ mi+ - 240° 240° 12 kt METAR EHLW 011755Z AUTO 24012KT 210V270 9999 NCD 18/11 Q1018 BLU
7:25 pm
V
64 °F 6¼ mi+ - 230° 230° 11 kt METAR EHLW 011725Z AUTO 23011KT 200V280 9999 FEW030 SCT044 18/11 Q1018 BLU
6:55 pm
V
66 °F 6¼ mi+ - 250° 250° 15 kt METAR EHLW 011655Z AUTO 25015KT 210V270 9999 FEW035 19/12 Q1017 BLU
6:25 pm
V
66 °F 6¼ mi+ - 240° 240° 14 kt METAR EHLW 011625Z AUTO 24014KT 220V280 9999 NCD 19/11 Q1017 BLU
5:55 pm
V
66 °F 6¼ mi+ 4.600 ft 240° 240° 13 kt METAR EHLW 011555Z AUTO 24013KT 200V270 9999 SCT035 BKN046 BKN052 19/11 Q1017 BLU
5:25 pm
V
64 °F 6¼ mi+ - 230° 230° 15 kt METAR EHLW 011525Z AUTO 23015KT 200V260 9999 SCT035 SCT043 18/10 Q1017 BLU
4:55 pm
V
68 °F 6¼ mi+ - 240° 240° 15 kt METAR EHLW 011455Z AUTO 24015KT 200V260 9999 SCT034 SCT041 20/11 Q1017 BLU
4:25 pm
V
66 °F 6¼ mi+ 4.400 ft 240° 240° 16 kt METAR EHLW 011425Z AUTO 24016KT 200V260 9999 SCT035 SCT040 BKN044 19/11 Q1016 BLU
3:55 pm
V
68 °F 6¼ mi+ 3.500 ft 240° 240° 14 kt METAR EHLW 011355Z AUTO 24014KT 200V270 9999 BKN035 BKN043 20/11 Q1016 BLU
3:25 pm
V
66 °F 6¼ mi+ 3.400 ft 250° 250° 12 kt METAR EHLW 011325Z AUTO 25012KT 200V290 9999 BKN034 BKN040 BKN250 19/11 Q1016 BLU
2:55 pm
V
66 °F 6¼ mi+ 4.300 ft 230° 230° 13 kt METAR EHLW 011255Z AUTO 23013KT 180V270 9999 SCT037 BKN043 BKN047 19/11 Q1016 BLU
2:25 pm
V
66 °F 6¼ mi+ - 240° 240° 14 kt METAR EHLW 011225Z AUTO 24014KT 200V280 9999 FEW034 SCT038 19/12 Q1016 BLU
1:55 pm
V
64 °F 6¼ mi+ 4.900 ft 240° 240° 12 kt METAR EHLW 011155Z AUTO 24012KT 190V290 9999 FEW026 SCT029 BKN049 18/12 Q1016 BLU
1:25 pm
V
64 °F 6¼ mi+ 3.000 ft 260° 260° 14 kt METAR EHLW 011125Z AUTO 26014KT 210V280 9999 SCT026 BKN030 BKN036 18/11 Q1016 BLU
12:55 pm
M
64 °F 6¼ mi+ 2.900 ft 250° 250° 14 kt METAR EHLW 011055Z AUTO 25014KT 210V280 9999 FEW025 BKN029 BKN034 18/12 Q1016 BLU
12:25 pm
V
63 °F 6¼ mi+ 5.800 ft 240° 240° 9 kt METAR EHLW 011025Z AUTO 24009KT 220V290 9999 FEW025 BKN058 OVC066 17/12 Q1015 BLU TEMPO 24012G25KT
11:55 am
V
64 °F 6¼ mi+ 8.600 ft 250° 250° 13 kt METAR EHLW 010955Z AUTO 25013KT 200V280 9999 FEW033 SCT050 BKN086 18/11 Q1015 BLU TEMPO 24012G25KT
11:25 am
V
64 °F 6¼ mi+ 21.000 ft 240° 240° 12 kt METAR EHLW 010925Z AUTO 24012KT 200V280 9999 FEW053 OVC210 18/13 Q1015 BLU TEMPO 24012G25KT
11:17 am
V
63 °F 6¼ mi+ 5.400 ft 240° 240° 12 kt METAR EHLW 010917Z AUTO 24012KT 210V290 9999 FEW023 BKN054 OVC059 17/12 Q1015 BLU TEMPO 24012G25KT
10:55 am
M
64 °F 6¼ mi+ 2.700 ft 220° 220° 12 kt METAR EHLW 010855Z AUTO 22012KT 190V250 9999 FEW019 SCT023 BKN027 18/13 Q1015 WHT TEMPO 24012G25KT
10:44 am
V
63 °F 6¼ mi+ 15.000 ft 220° 220° 11 kt METAR EHLW 010844Z AUTO 22011KT 180V240 9999 FEW019 SCT024 OVC150 17/13 Q1015 WHT TEMPO 24012G25KT
10:42 am
V
63 °F 6¼ mi+ 15.000 ft 220° 220° 10 kt METAR EHLW 010842Z AUTO 22010KT 180V250 9999 FEW020 SCT025 OVC150 17/13 Q1015 BLU TEMPO 24012G25KT
10:34 am
V
63 °F 6¼ mi+ 14.000 ft 220° 220° 11 kt METAR EHLW 010834Z AUTO 22011KT 180V240 9999 FEW019 SCT025 OVC140 17/13 Q1015 BLU TEMPO 24012G25KT
10:25 am
M
63 °F 6¼ mi+ 2.300 ft 220° 220° 13 kt METAR EHLW 010825Z AUTO 22013KT 9999 SCT019 BKN023 BKN029 17/13 Q1014 WHT TEMPO 24012G25KT
10:16 am
V
63 °F 6¼ mi+ 4.100 ft 220° 220° 12 kt METAR EHLW 010816Z AUTO 22012KT 180V250 9999 FEW017 SCT025 BKN041 17/13 Q1014 BLU BECMG 24012G22KT
10:06 am
V
63 °F 6¼ mi+ 4.300 ft 220° 220° 11 kt METAR EHLW 010806Z AUTO 22011KT 180V240 9999 FEW017 SCT021 BKN043 17/13 Q1014 WHT BECMG 24012G22KT
9:55 am
V
63 °F 6¼ mi+ 14.000 ft 220° 220° 12 kt METAR EHLW 010755Z AUTO 22012KT 170V240 9999 OVC140 17/13 Q1014 BLU BECMG 24012G22KT
9:25 am
V
61 °F 6¼ mi+ 15.000 ft 220° 220° 10 kt METAR EHLW 010725Z AUTO 22010KT 180V240 9999 OVC150 16/14 Q1014 BLU BECMG 24012G22KT
8:55 am
V
61 °F 6¼ mi+ 15.000 ft 210° 210° 8 kt METAR EHLW 010655Z AUTO 21008KT 180V240 9999 OVC150 16/13 Q1014 BLU BECMG 24012G22KT
8:44 am
V
61 °F 6¼ mi+ 15.000 ft 210° 210° 8 kt METAR EHLW 010644Z AUTO 21008KT 9999 OVC150 16/14 Q1014 BLU BECMG 24012G22KT
8:25 am
V
59 °F 6¼ mi+ 15.000 ft 210° 210° 7 kt METAR EHLW 010625Z AUTO 21007KT 180V240 9999 OVC150 15/13 Q1014 BLU
7:55 am
V
59 °F 6¼ mi+ 16.000 ft 200° 200° 6 kt METAR EHLW 010555Z AUTO 20006KT 9999 OVC160 15/13 Q1014 BLU
7:25 am
V
57 °F 6¼ mi+ 20.000 ft 210° 210° 7 kt METAR EHLW 010525Z AUTO 21007KT 9999 OVC200 14/12 Q1014 BLU
6:55 am
V
57 °F 6¼ mi+ 21.000 ft 210° 210° 6 kt METAR EHLW 010455Z AUTO 21006KT 180V240 9999 OVC210 14/12 Q1013 BLU
6:25 am
V
57 °F 6¼ mi+ 18.000 ft 220° 220° 7 kt METAR EHLW 010425Z AUTO 22007KT 9999 OVC180 14/12 Q1013 BLU
5:55 am
V
57 °F 6¼ mi+ 18.000 ft 210° 210° 7 kt METAR EHLW 010355Z AUTO 21007KT 9999 OVC180 14/12 Q1013 BLU
5:25 am
V
57 °F 6¼ mi+ 3.200 ft 220° 220° 4 kt METAR EHLW 010325Z AUTO 22004KT 200V270 9999 FEW026 BKN032 OVC039 14/13 Q1013 REDZ BLU
5:13 am
M
57 °F 6¼ mi+ 2.600 ft 220° 220° 4 kt METAR EHLW 010313Z AUTO 22004KT 9999 DZ FEW021 BKN026 OVC030 14/13 Q1013 BLU
4:55 am
M
57 °F 6¼ mi+ 1.700 ft 220° 220° 5 kt METAR EHLW 010255Z AUTO 22005KT 9999 BKN017 OVC020 14/12 Q1013 WHT
4:25 am
V
57 °F 6¼ mi+ 16.000 ft 240° 240° 7 kt METAR EHLW 010225Z AUTO 24007KT 9999 OVC160 14/13 Q1013 BLU
3:55 am
V
59 °F 6¼ mi+ 3.300 ft 230° 230° 5 kt METAR EHLW 010155Z AUTO 23005KT 9999 FEW018 OVC033 15/14 Q1012 BLU
3:25 am
V
59 °F 6¼ mi+ 3.500 ft 260° 260° 5 kt METAR EHLW 010125Z AUTO 26005KT 9999 FEW016 BKN035 BKN040 15/13 Q1012 REDZ BLU
3:15 am
V
59 °F 6¼ mi+ 6.500 ft 260° 260° 5 kt METAR EHLW 010115Z AUTO 26005KT 230V300 9999 DZ FEW037 SCT042 OVC065 15/13 Q1012 BLU
3:06 am
V
59 °F 6¼ mi+ 3.200 ft 260° 260° 7 kt METAR EHLW 010106Z AUTO 26007KT 230V290 9999 DZRA FEW028 BKN032 OVC062 15/13 Q1012 BLU
2:55 am
V
59 °F 6¼ mi+ 4.000 ft 260° 260° 8 kt METAR EHLW 010055Z AUTO 26008KT 220V280 9999 FEW022 SCT026 OVC040 15/13 Q1012 BLU
2:44 am
V
59 °F 6¼ mi+ 4.200 ft 250° 250° 9 kt METAR EHLW 010044Z AUTO 25009KT 9999 -RADZ FEW028 SCT034 OVC042 15/13 Q1012 BLU
2:34 am
V
59 °F 6¼ mi+ 4.500 ft 250° 250° 9 kt METAR EHLW 010034Z AUTO 25009KT 9999 SCT035/// OVC045/// 15/13 Q1012 BLU
2:25 am
V
59 °F 6¼ mi+ 3.200 ft 250° 250° 8 kt METAR EHLW 010025Z AUTO 25008KT 9999 DZRA FEW029 BKN032 OVC038 15/14 Q1012 BLU
2:21 am
V
59 °F 6¼ mi+ 3.000 ft 250° 250° 9 kt METAR EHLW 010021Z AUTO 25009KT 9999 -SHRA FEW009 OVC030 15/14 Q1012 BLU
2:13 am
M
59 °F 6¼ mi+ 2.000 ft 260° 260° 8 kt METAR EHLW 010013Z AUTO 26008KT 230V290 9999 FEW009 SCT011 BKN020 15/14 Q1012 GRN
2:04 am
M
59 °F 6¼ mi+ 1.800 ft 270° 270° 7 kt METAR EHLW 010004Z AUTO 27007KT 220V290 9999 -DZ FEW006 SCT013 BKN018 15/14 Q1012 GRN
1:55 am
I
59 °F 6¼ mi+ 700 ft 260° 260° 7 kt METAR EHLW 302355Z AUTO 26007KT 230V300 9999 -DZ SCT006 BKN007 BKN009 FEW015CB 15/14 Q1012 YLO
1:44 am
M
59 °F 6¼ mi+ 1.600 ft 260° 260° 8 kt METAR EHLW 302344Z AUTO 26008KT 220V290 9999 -DZ FEW007 SCT014 FEW015CB OVC016 15/14 Q1012 GRN
1:28 am
M
59 °F 6¼ mi+ 1.500 ft 260° 260° 7 kt METAR EHLW 302328Z AUTO 26007KT 220V290 9999 -DZRA BKN015CB SCT016 OVC022 15/14 Q1012 WHT
1:25 am
M
59 °F 6¼ mi+ 1.500 ft 260° 260° 7 kt METAR EHLW 302325Z AUTO 26007KT 220V290 9999 -RA BKN015CB SCT016 BKN047 15/14 Q1012 RERA WHT
1:16 am
M
59 °F 5⅝ mi 1.500 ft 260° 260° 6 kt METAR EHLW 302316Z AUTO 26006KT 9000 RA FEW006 BKN015CB BKN045 15/14 Q1012 WHT
1:09 am
M
59 °F 3¾ mi 1.300 ft 260° 260° 6 kt METAR EHLW 302309Z AUTO 26006KT 220V290 6000 RA FEW005 SCT007 BKN013 BKN015CB 15/14 Q1012 GRN
1:05 am
M
59 °F 5⅝ mi 1.500 ft 250° 250° 6 kt METAR EHLW 302305Z AUTO 25006KT 210V290 9000 RA FEW005 SCT007 BKN015CB 15/14 Q1012 GRN
12:55 am
M
59 °F 3⅛ mi 1.000 ft 250° 250° 8 kt METAR EHLW 302255Z AUTO 25008KT 5000 +SHRA FEW008 SCT009 BKN010 FEW015CB 15/14 Q1012 GRN
12:38 am
M
59 °F 6¼ mi+ 1.000 ft 280° 280° 7 kt METAR EHLW 302238Z AUTO 28007KT 260V320 9999 -DZRA BKN010 BKN013 FEW015CB BKN023 15/14 Q1011 GRN
12:33 am
M
59 °F 6¼ mi+ 1.100 ft 290° 290° 9 kt METAR EHLW 302233Z AUTO 29009KT 250V320 9999 BKN011 BKN014 FEW015CB BKN023 15/14 Q1011 GRN
12:26 am
M
59 °F 6¼ mi+ 2.500 ft 290° 290° 10 kt METAR EHLW 302226Z AUTO 29010KT 250V330 9999 SCT011 SCT013 FEW015CB BKN025 15/13 Q1011 GRN
12:12 am
V
59 °F 6¼ mi+ 3.700 ft 290° 290° 9 kt METAR EHLW 302212Z AUTO 29009KT 260V330 9999 DZ FEW015CB OVC037 15/13 Q1011 BLU
12:03 am
V
59 °F 6¼ mi+ 3.600 ft 300° 300° 9 kt METAR EHLW 302203Z AUTO 30009KT 260V340 9999 -DZRA FEW015CB BKN036 OVC040 15/13 Q1011 BLU

30 giugno 2022

Tempo Codice Tempo metereologico Temp. Vista Base nuvolosa Vento METAR/SPECI
11:55 pm
V
59 °F 6¼ mi+ 9.000 ft 320° 320° 12 kt METAR EHLW 302155Z AUTO 32012KT 280V360 9999 -RA FEW015CB SCT048 BKN090 15/13 Q1010 RERA REDZ BLU
11:25 pm
V
57 °F 6¼ mi+ 9.000 ft 300° 300° 11 kt METAR EHLW 302125Z AUTO 30011KT 270V330 9999 -RA SCT015CB SCT032 OVC090 14/13 Q1011 WHT
10:59 pm
M
57 °F 6¼ mi+ 2.600 ft 290° 290° 8 kt METAR EHLW 302059Z AUTO 29008KT 260V330 9999 -SHRA FEW008 SCT015CB OVC026 14/13 Q1011 WHT
10:55 pm
M
57 °F 6¼ mi+ 1.000 ft 290° 290° 6 kt METAR EHLW 302055Z AUTO 29006KT 250V360 9999 -TSRA SCT008 BKN010 SCT015CB OVC021 14/13 Q1011 RERA GRN
10:38 pm
I
57 °F 5⅝ mi 800 ft 290° 290° 12 kt METAR EHLW 302038Z AUTO 29012KT 270V340 9000 -TSRA FEW007 BKN008 BKN010 BKN015CB 14/13 Q1011 GRN
10:25 pm
M
59 °F 4⅜ mi 1.500 ft 290° 290° 13 kt METAR EHLW 302025Z AUTO 29013KT 260V320 7000 TSRA BKN015CB SCT069 BKN079 15/13 Q1011 WHT
10:09 pm
M
59 °F 3¾ mi 1.500 ft 270° 270° 17 kt METAR EHLW 302009Z AUTO 27017KT 230V310 6000 +TSRA FEW013 BKN015CB BKN021 15/14 Q1012 WHT
9:59 pm
M
61 °F 6¼ mi+ 1.500 ft 280° 280° 13 kt METAR EHLW 301959Z AUTO 28013KT 240V330 9999 -TSRA BKN015CB BKN016 OVC019 16/14 Q1011 WHT
9:55 pm
M
61 °F 6¼ mi+ 1.500 ft 290° 290° 14 kt METAR EHLW 301955Z AUTO 29014KT 260V330 9999 -RA BKN015CB OVC017 16/13 Q1011 RERA REDZ WHT
9:41 pm
M
61 °F 6¼ mi+ 1.500 ft 300° 300° 15 kt METAR EHLW 301941Z AUTO 30015KT 260V330 9999 TSRA BKN015CB OVC018 16/14 Q1011 WHT
9:39 pm
M
61 °F 6¼ mi+ 1.500 ft 300° 300° 15 kt METAR EHLW 301939Z AUTO 30015KT 260V330 9999 -TSRA BKN015CB OVC018 16/14 Q1011 WHT
9:35 pm
M
63 °F 6¼ mi+ 1.500 ft 290° 290° 16 kt METAR EHLW 301935Z AUTO 29016KT 260V320 9999 -RADZ BKN015CB 17/14 Q1011 WHT
9:25 pm
M
63 °F 6¼ mi+ 1.600 ft 290° 290° 16 kt METAR EHLW 301925Z AUTO 29016KT 250V330 9999 -RA SCT014 FEW015CB OVC016 17/14 Q1011 GRN
9:14 pm
M
63 °F 6¼ mi+ 1.500 ft 290° 290° 14 kt METAR EHLW 301914Z AUTO 29014KT 260V330 9999 SCT013 OVC015 17/14 Q1011 GRN
9:02 pm
M
63 °F 6¼ mi+ 1.500 ft 290° 290° 15 kt METAR EHLW 301902Z AUTO 29015KT 260V330 9999 FEW013 OVC015 17/14 Q1011 WHT
8:55 pm
M
64 °F 6¼ mi+ 1.400 ft 290° 290° 15 kt METAR EHLW 301855Z AUTO 29015KT 260V330 9999 BKN014 OVC016 18/14 Q1011 GRN
8:25 pm
M
64 °F 6¼ mi+ 1.100 ft 300° 300° 13 kt METAR EHLW 301825Z AUTO 30013KT 260V340 9999 BKN011 BKN013 OVC017 18/15 Q1010 GRN
8:20 pm
M
64 °F 6¼ mi+ 1.300 ft 300° 300° 14 kt METAR EHLW 301820Z AUTO 30014KT 260V340 9999 SCT011 BKN013 BKN018 18/16 Q1011 GRN
7:55 pm
M
66 °F 6¼ mi+ 1.500 ft 310° 310° 13 kt METAR EHLW 301755Z AUTO 31013KT 270V350 9999 BKN015 OVC018 19/15 Q1010 WHT
7:44 pm
M
66 °F 6¼ mi+ 1.500 ft 320° 320° 12 kt METAR EHLW 301744Z AUTO 32012KT 300V360 9999 OVC015 19/16 Q1010 WHT
7:34 pm
M
68 °F 6¼ mi+ 2.900 ft 320° 320° 12 kt METAR EHLW 301734Z AUTO 32012KT 280V360 9999 SCT016 BKN029 OVC230 20/16 Q1010 WHT
7:25 pm
V
68 °F 6¼ mi+ 23.000 ft 320° 320° 12 kt METAR EHLW 301725Z AUTO 32012KT 300V010 9999 BKN230 20/16 Q1010 BLU
6:55 pm
V
68 °F 6¼ mi+ 14.000 ft 310° 310° 10 kt METAR EHLW 301655Z AUTO 31010KT 280V360 9999 OVC140 20/15 Q1010 BLU
6:25 pm
V
70 °F 6¼ mi+ 15.000 ft 320° 320° 10 kt METAR EHLW 301625Z AUTO 32010KT 290V350 9999 OVC150 21/15 Q1010 BLU
5:55 pm
V
70 °F 6¼ mi+ 15.000 ft 320° 320° 9 kt METAR EHLW 301555Z AUTO 32009KT 280V360 9999 BKN150 BKN250 BKN320 21/14 Q1011 BLU
5:25 pm
V
72 °F 6¼ mi+ 32.000 ft 310° 310° 8 kt METAR EHLW 301525Z AUTO 31008KT 270V360 9999 FEW170 OVC320 22/14 Q1011 BLU
4:55 pm
V
72 °F 6¼ mi+ 13.000 ft 320° 320° 10 kt METAR EHLW 301455Z AUTO 32010KT 280V350 9999 OVC130 22/14 Q1011 BLU
Dati più vecchi

Scarica la nostra applicazione

Facile accesso a tutte le previsioni dell'aviazione sul tuo cellulare e tablet.
Con molte caratteristiche non disponibili sul sito web, come il supporto offline e una lista personale di aeroporti.

Noi e le terze parti seguiamo il tuo comportamento in internet sul nostro sito web con i cookie. Se continui, riteniamo che tu sia d'accordo con la nostra politica sui cookie. Per saperne di più